FDX853 KDEN-KMEM

Flight info

Callsign FDX853
Flight time 1h 40m
Altitude 35000
Route EPKEE7 DUUZE ICT RZC BRBBQ3
Aircraft MD11/H-SDE1E2E3FGHIJ2J3J4J5M1RWXY/LB1D1

Departure

Time 2026-05-07 03:22
Airport Denver International Airport (KDEN)

Arrival

Time 2026-05-07 05:02
Airport Memphis International Airport (KMEM)
Time Latitude Longitude Altitude Speed Heading
2026-05-07 02:39 39.83097 -104.67486 5393 ft 0 kts
2026-05-07 03:03 39.83088 -104.67486 5387 ft 4 kts 360°
2026-05-07 03:03 39.83063 -104.67488 5392 ft 3 kts
2026-05-07 03:04 39.83039 -104.67493 5394 ft 3 kts 21°
2026-05-07 03:04 39.83023 -104.67504 5393 ft 2 kts 49°
2026-05-07 03:04 39.83014 -104.67522 5390 ft 2 kts 77°
2026-05-07 03:04 39.83012 -104.67539 5389 ft 1 kts 87°
2026-05-07 03:05 39.83012 -104.67551 5389 ft 1 kts 90°
2026-05-07 03:05 39.83012 -104.67563 5389 ft 1 kts 91°
2026-05-07 03:05 39.83012 -104.67566 5389 ft 0 kts 91°
2026-05-07 03:10 39.83012 -104.67564 5398 ft 1 kts 91°
2026-05-07 03:10 39.83011 -104.67536 5390 ft 5 kts 91°
2026-05-07 03:10 39.83010 -104.67469 5391 ft 9 kts 91°
2026-05-07 03:10 39.83008 -104.67367 5392 ft 13 kts 91°
2026-05-07 03:11 39.82983 -104.67239 5394 ft 16 kts 117°
2026-05-07 03:11 39.82940 -104.67115 5395 ft 15 kts 101°
2026-05-07 03:11 39.82936 -104.66974 5413 ft 16 kts 91°
2026-05-07 03:11 39.82934 -104.66830 5416 ft 16 kts 91°
2026-05-07 03:12 39.82932 -104.66685 5415 ft 16 kts 90°
2026-05-07 03:12 39.82933 -104.66547 5420 ft 16 kts 90°
2026-05-07 03:12 39.82932 -104.66417 5439 ft 13 kts 90°
2026-05-07 03:12 39.82936 -104.66316 5444 ft 9 kts 75°
2026-05-07 03:13 39.82976 -104.66274 5441 ft 7 kts 14°
2026-05-07 03:13 39.83053 -104.66266 5440 ft 16 kts
2026-05-07 03:13 39.83191 -104.66264 5440 ft 23 kts
2026-05-07 03:13 39.83374 -104.66262 5438 ft 29 kts
2026-05-07 03:14 39.83585 -104.66259 5432 ft 32 kts
2026-05-07 03:14 39.83799 -104.66257 5421 ft 30 kts
2026-05-07 03:14 39.84199 -104.66253 5410 ft 27 kts
2026-05-07 03:15 39.84384 -104.66251 5415 ft 26 kts
2026-05-07 03:15 39.84564 -104.66249 5413 ft 25 kts
2026-05-07 03:15 39.84737 -104.66246 5400 ft 25 kts
2026-05-07 03:15 39.84925 -104.66243 5407 ft 29 kts
2026-05-07 03:16 39.85138 -104.66240 5400 ft 32 kts
2026-05-07 03:16 39.85360 -104.66239 5398 ft 31 kts
2026-05-07 03:16 39.85565 -104.66236 5396 ft 29 kts
2026-05-07 03:16 39.85771 -104.66234 5391 ft 30 kts
2026-05-07 03:17 39.85947 -104.66231 5392 ft 5 kts
2026-05-07 03:17 39.85948 -104.66231 5392 ft 0 kts
2026-05-07 03:17 39.85951 -104.66231 5394 ft 2 kts
2026-05-07 03:17 39.85995 -104.66230 5393 ft 11 kts
2026-05-07 03:18 39.86095 -104.66229 5387 ft 18 kts
2026-05-07 03:18 39.86242 -104.66227 5389 ft 23 kts
2026-05-07 03:18 39.86411 -104.66225 5389 ft 26 kts
2026-05-07 03:18 39.86600 -104.66224 5387 ft 29 kts
2026-05-07 03:19 39.86813 -104.66221 5376 ft 33 kts
2026-05-07 03:19 39.87049 -104.66219 5373 ft 36 kts
2026-05-07 03:19 39.87304 -104.66215 5367 ft 37 kts
2026-05-07 03:19 39.87515 -104.66212 5367 ft 25 kts
2026-05-07 03:20 39.87670 -104.66211 5368 ft 19 kts
2026-05-07 03:20 39.87745 -104.66173 5365 ft 8 kts 60°
2026-05-07 03:20 39.87753 -104.66118 5364 ft 0 kts 88°
2026-05-07 03:21 39.87753 -104.66087 5364 ft 19 kts 89°
2026-05-07 03:21 39.87750 -104.65557 5360 ft 97 kts 90°
2026-05-07 03:21 39.87742 -104.64393 5345 ft 160 kts 91°
2026-05-07 03:22 39.87735 -104.62797 5430 ft 185 kts 93°
2026-05-07 03:22 39.87742 -104.61110 5991 ft 184 kts 93°
2026-05-07 03:22 39.87536 -104.59467 6596 ft 188 kts 111°
2026-05-07 03:22 39.87087 -104.57837 7069 ft 198 kts 115°
2026-05-07 03:23 39.86542 -104.56153 7775 ft 203 kts 114°
2026-05-07 03:23 39.85972 -104.54427 8478 ft 211 kts 113°
2026-05-07 03:23 39.85364 -104.52577 8891 ft 237 kts 112°
2026-05-07 03:23 39.84675 -104.50473 8980 ft 266 kts 112°
2026-05-07 03:24 39.83926 -104.48180 9130 ft 293 kts 112°
2026-05-07 03:24 39.83111 -104.45682 9799 ft 303 kts 111°
2026-05-07 03:24 39.82261 -104.43077 10274 ft 326 kts 111°
2026-05-07 03:24 39.81330 -104.40225 10406 ft 358 kts 111°
2026-05-07 03:25 39.80289 -104.37148 10768 ft 380 kts 112°
2026-05-07 03:25 39.79194 -104.33985 11610 ft 386 kts 112°
2026-05-07 03:25 39.78076 -104.30778 12461 ft 392 kts 112°
2026-05-07 03:25 39.76955 -104.27566 13281 ft 397 kts 111°
2026-05-07 03:26 39.75805 -104.24265 14059 ft 403 kts 111°
2026-05-07 03:26 39.74645 -104.20935 14807 ft 407 kts 111°
2026-05-07 03:26 39.73473 -104.17573 15564 ft 409 kts 111°
2026-05-07 03:26 39.72325 -104.14295 16292 ft 412 kts 111°
2026-05-07 03:27 39.71127 -104.10894 17004 ft 415 kts 110°
2026-05-07 03:27 39.69918 -104.07467 17725 ft 418 kts 110°
2026-05-07 03:27 39.68701 -104.04019 18426 ft 421 kts 110°
2026-05-07 03:27 39.67473 -104.00541 19013 ft 425 kts 110°
2026-05-07 03:28 39.66227 -103.97048 19552 ft 429 kts 111°
2026-05-07 03:28 39.64912 -103.93612 20106 ft 433 kts 113°
2026-05-07 03:28 39.63516 -103.90127 20626 ft 437 kts 113°
2026-05-07 03:28 39.62085 -103.86624 21189 ft 440 kts 114°
2026-05-07 03:29 39.60642 -103.83106 21735 ft 444 kts 114°
2026-05-07 03:29 39.59221 -103.79541 22258 ft 446 kts 110°
2026-05-07 03:29 39.57989 -103.75838 22830 ft 447 kts 107°
2026-05-07 03:29 39.56889 -103.72061 23393 ft 450 kts 105°
2026-05-07 03:30 39.55837 -103.68232 23940 ft 453 kts 104°
2026-05-07 03:30 39.54787 -103.64361 24443 ft 456 kts 104°
2026-05-07 03:30 39.53738 -103.60514 24958 ft 459 kts 105°
2026-05-07 03:30 39.52656 -103.56594 25466 ft 463 kts 105°
2026-05-07 03:31 39.51557 -103.52652 25981 ft 466 kts 105°
2026-05-07 03:31 39.50444 -103.48683 26494 ft 470 kts 105°
2026-05-07 03:31 39.49319 -103.44693 26991 ft 473 kts 105°
2026-05-07 03:31 39.48183 -103.40671 27499 ft 477 kts 105°
2026-05-07 03:32 39.47038 -103.36625 27984 ft 480 kts 105°
2026-05-07 03:32 39.46275 -103.33933 28312 ft 483 kts 105°
2026-05-07 03:32 39.45113 -103.29838 28786 ft 486 kts 105°
2026-05-07 03:32 39.43942 -103.25718 29278 ft 490 kts 105°
2026-05-07 03:33 39.42761 -103.21565 29762 ft 493 kts 105°
2026-05-07 03:33 39.41570 -103.17386 30197 ft 496 kts 105°
2026-05-07 03:33 39.40370 -103.13185 30687 ft 496 kts 106°
2026-05-07 03:33 39.39188 -103.09054 31180 ft 496 kts 106°
2026-05-07 03:34 39.37975 -103.04823 31672 ft 495 kts 106°
2026-05-07 03:34 39.36780 -103.00661 32145 ft 495 kts 106°
2026-05-07 03:34 39.35534 -102.96569 32606 ft 495 kts 110°
2026-05-07 03:34 39.34091 -102.92513 33037 ft 497 kts 112°
2026-05-07 03:35 39.32548 -102.88525 33475 ft 497 kts 114°
2026-05-07 03:35 39.30961 -102.84549 33911 ft 496 kts 114°
2026-05-07 03:35 39.29376 -102.80593 34299 ft 496 kts 114°
2026-05-07 03:35 39.27815 -102.76675 34647 ft 495 kts 114°
2026-05-07 03:36 39.26250 -102.72716 34996 ft 494 kts 114°
2026-05-07 03:36 39.24689 -102.68747 35145 ft 499 kts 114°
2026-05-07 03:36 39.23117 -102.64737 35181 ft 500 kts 114°
2026-05-07 03:37 39.19969 -102.56711 35181 ft 501 kts 114°
2026-05-07 03:37 39.16813 -102.48690 35176 ft 501 kts 115°
2026-05-07 03:38 39.13648 -102.40685 35175 ft 501 kts 115°
2026-05-07 03:38 39.10471 -102.32750 35172 ft 501 kts 115°
2026-05-07 03:39 39.07271 -102.24765 35175 ft 502 kts 115°
2026-05-07 03:39 39.04072 -102.16781 35180 ft 502 kts 115°
2026-05-07 03:40 39.00865 -102.08789 35187 ft 502 kts 115°
2026-05-07 03:40 38.97672 -102.00855 35188 ft 502 kts 115°
2026-05-07 03:41 38.94450 -101.92871 35191 ft 502 kts 116°
2026-05-07 03:41 38.91226 -101.84902 35189 ft 503 kts 116°
2026-05-07 03:42 38.87995 -101.76938 35192 ft 503 kts 116°
2026-05-07 03:42 38.84761 -101.68982 35193 ft 503 kts 115°
2026-05-07 03:43 38.82125 -101.60754 35196 ft 502 kts 107°
2026-05-07 03:43 38.80065 -101.52197 35195 ft 502 kts 105°
2026-05-07 03:44 38.78047 -101.43614 35199 ft 504 kts 105°
2026-05-07 03:44 38.75954 -101.35023 35201 ft 505 kts 106°
2026-05-07 03:45 38.73822 -101.26437 35195 ft 506 kts 107°
2026-05-07 03:45 38.71674 -101.17830 35198 ft 508 kts 107°
2026-05-07 03:46 38.69532 -101.09268 35208 ft 509 kts 107°
2026-05-07 03:46 38.67362 -101.00621 35212 ft 510 kts 107°
2026-05-07 03:47 38.65178 -100.91947 35214 ft 511 kts 108°
2026-05-07 03:47 38.62986 -100.83270 35213 ft 513 kts 108°
2026-05-07 03:48 38.60792 -100.74620 35212 ft 515 kts 108°
2026-05-07 03:48 38.58572 -100.65902 35208 ft 516 kts 109°
2026-05-07 03:49 38.56306 -100.57155 35205 ft 518 kts 109°
2026-05-07 03:49 38.54041 -100.48396 35198 ft 520 kts 109°
2026-05-07 03:50 38.51787 -100.39646 35192 ft 521 kts 109°
2026-05-07 03:50 38.49510 -100.30821 35197 ft 523 kts 109°
2026-05-07 03:51 38.47222 -100.21984 35197 ft 524 kts 110°
2026-05-07 03:51 38.44937 -100.13191 35194 ft 525 kts 110°
2026-05-07 03:52 38.42625 -100.04332 35197 ft 526 kts 110°
2026-05-07 03:52 38.40303 -99.95459 35198 ft 527 kts 110°
2026-05-07 03:53 38.37984 -99.86635 35202 ft 528 kts 111°
2026-05-07 03:53 38.35643 -99.77755 35201 ft 529 kts 111°
2026-05-07 03:54 38.33291 -99.68865 35200 ft 530 kts 111°
2026-05-07 03:54 38.30906 -99.59955 35198 ft 531 kts 112°
2026-05-07 03:55 38.28520 -99.51109 35197 ft 532 kts 112°
2026-05-07 03:55 38.26119 -99.42163 35191 ft 533 kts 112°
2026-05-07 03:56 38.23727 -99.33246 35189 ft 534 kts 112°
2026-05-07 03:56 38.21319 -99.24298 35184 ft 536 kts 112°
2026-05-07 03:57 38.18891 -99.15309 35182 ft 536 kts 113°
2026-05-07 03:57 38.16457 -99.06335 35181 ft 537 kts 113°
2026-05-07 03:58 38.14013 -98.97350 35184 ft 538 kts 113°
2026-05-07 03:58 38.11575 -98.88422 35186 ft 538 kts 114°
2026-05-07 03:59 38.09113 -98.79436 35180 ft 539 kts 114°
2026-05-07 03:59 38.06637 -98.70428 35178 ft 539 kts 114°
2026-05-07 04:00 38.04143 -98.61438 35174 ft 539 kts 115°
2026-05-07 04:00 38.01642 -98.52519 35170 ft 540 kts 115°
2026-05-07 04:01 37.99135 -98.43537 35165 ft 540 kts 115°
2026-05-07 04:01 37.96639 -98.34580 35164 ft 541 kts 115°
2026-05-07 04:02 37.94126 -98.25591 35157 ft 541 kts 116°
2026-05-07 04:02 37.91599 -98.16594 35161 ft 543 kts 116°
2026-05-07 04:03 37.89058 -98.07587 35159 ft 543 kts 116°
2026-05-07 04:03 37.86532 -97.98633 35157 ft 544 kts 116°
2026-05-07 04:04 37.83979 -97.89620 35153 ft 545 kts 117°
2026-05-07 04:04 37.81411 -97.80594 35155 ft 546 kts 117°
2026-05-07 04:05 37.78828 -97.71548 35156 ft 547 kts 117°
2026-05-07 04:05 37.75880 -97.62748 35161 ft 540 kts 125°
2026-05-07 04:06 37.72425 -97.54340 35171 ft 538 kts 127°
2026-05-07 04:06 37.68937 -97.46032 35167 ft 540 kts 127°
2026-05-07 04:07 37.65457 -97.37591 35160 ft 542 kts 127°
2026-05-07 04:07 37.61998 -97.29130 35160 ft 543 kts 127°
2026-05-07 04:08 37.58524 -97.20643 35159 ft 544 kts 127°
2026-05-07 04:08 37.55035 -97.12154 35159 ft 546 kts 128°
2026-05-07 04:09 37.51555 -97.03717 35163 ft 547 kts 128°
2026-05-07 04:09 37.48035 -96.95203 35153 ft 548 kts 128°
2026-05-07 04:10 37.44500 -96.86677 35153 ft 550 kts 129°
2026-05-07 04:10 37.40945 -96.78127 35163 ft 552 kts 129°
2026-05-07 04:11 37.37364 -96.69585 35157 ft 552 kts 129°
2026-05-07 04:11 37.33762 -96.61032 35152 ft 554 kts 129°
2026-05-07 04:12 37.30186 -96.52515 35148 ft 555 kts 130°
2026-05-07 04:12 37.26576 -96.43921 35148 ft 556 kts 130°
2026-05-07 04:13 37.22956 -96.35327 35144 ft 557 kts 130°
2026-05-07 04:13 37.19326 -96.26731 35141 ft 558 kts 130°
2026-05-07 04:14 37.15683 -96.18131 35141 ft 558 kts 130°
2026-05-07 04:14 37.12044 -96.09560 35143 ft 559 kts 130°
2026-05-07 04:15 37.08383 -96.00962 35144 ft 559 kts 130°
2026-05-07 04:15 37.04721 -95.92386 35146 ft 559 kts 130°
2026-05-07 04:16 37.01051 -95.83816 35144 ft 558 kts 130°
2026-05-07 04:16 36.97376 -95.75321 35140 ft 558 kts 131°
2026-05-07 04:17 36.93674 -95.66773 35147 ft 559 kts 131°
2026-05-07 04:17 36.89981 -95.58227 35141 ft 559 kts 130°
2026-05-07 04:18 36.86276 -95.49658 35137 ft 559 kts 131°
2026-05-07 04:18 36.82595 -95.41171 35133 ft 559 kts 131°
2026-05-07 04:19 36.78882 -95.32634 35122 ft 560 kts 131°
2026-05-07 04:19 36.75161 -95.24102 35123 ft 560 kts 131°
2026-05-07 04:20 36.71431 -95.15570 35121 ft 560 kts 131°
2026-05-07 04:20 36.68323 -95.08480 35123 ft 561 kts 131°
2026-05-07 04:21 36.62695 -94.95678 35126 ft 561 kts 131°
2026-05-07 04:21 36.58928 -94.87174 35133 ft 560 kts 131°
2026-05-07 04:22 36.55149 -94.78692 35133 ft 561 kts 131°
2026-05-07 04:22 36.51372 -94.70195 35130 ft 561 kts 131°
2026-05-07 04:23 36.47618 -94.61747 35128 ft 561 kts 131°
2026-05-07 04:23 36.43842 -94.53270 35123 ft 561 kts 131°
2026-05-07 04:24 36.40054 -94.44789 35120 ft 561 kts 131°
2026-05-07 04:24 36.36258 -94.36316 35123 ft 561 kts 131°
2026-05-07 04:25 36.32484 -94.27911 35123 ft 561 kts 131°
2026-05-07 04:25 36.28672 -94.19444 35140 ft 561 kts 131°
2026-05-07 04:26 36.24906 -94.11007 35128 ft 566 kts 127°
2026-05-07 04:26 36.23397 -94.06417 35125 ft 581 kts 117°
2026-05-07 04:26 36.22349 -94.01522 35127 ft 590 kts 110°
2026-05-07 04:27 36.20873 -93.91479 35117 ft 594 kts 107°
2026-05-07 04:27 36.19421 -93.81477 35118 ft 591 kts 109°
2026-05-07 04:28 36.17780 -93.71515 35104 ft 589 kts 110°
2026-05-07 04:28 36.16070 -93.61655 35095 ft 588 kts 110°
2026-05-07 04:29 36.14344 -93.51740 35092 ft 588 kts 110°
2026-05-07 04:29 36.12621 -93.41840 35102 ft 588 kts 110°
2026-05-07 04:30 36.10880 -93.31954 35106 ft 588 kts 110°
2026-05-07 04:30 36.09148 -93.22102 35100 ft 588 kts 110°
2026-05-07 04:31 36.07410 -93.12211 35104 ft 588 kts 110°
2026-05-07 04:31 36.05665 -93.02338 35099 ft 588 kts 110°
2026-05-07 04:32 36.03909 -92.92457 35097 ft 588 kts 110°
2026-05-07 04:32 36.02146 -92.82590 35093 ft 588 kts 110°
2026-05-07 04:33 36.00374 -92.72718 35096 ft 588 kts 110°
2026-05-07 04:33 35.98606 -92.62919 35098 ft 588 kts 109°
2026-05-07 04:34 35.96818 -92.53062 35099 ft 588 kts 109°
2026-05-07 04:34 35.95018 -92.43207 35095 ft 588 kts 110°
2026-05-07 04:35 35.93185 -92.33362 35093 ft 588 kts 110°
2026-05-07 04:35 35.91357 -92.23527 35094 ft 588 kts 109°
2026-05-07 04:36 35.89547 -92.13759 35093 ft 588 kts 109°
2026-05-07 04:36 35.87721 -92.03921 35093 ft 588 kts 109°
2026-05-07 04:37 35.85886 -91.94085 35091 ft 587 kts 109°
2026-05-07 04:37 35.84074 -91.84379 34730 ft 567 kts 109°
2026-05-07 04:38 35.83192 -91.79664 34178 ft 562 kts 110°
2026-05-07 04:38 35.82218 -91.75020 33359 ft 555 kts 115°
2026-05-07 04:38 35.80919 -91.70589 32578 ft 545 kts 121°
2026-05-07 04:38 35.79410 -91.66329 31841 ft 539 kts 123°
2026-05-07 04:39 35.77814 -91.62158 31105 ft 536 kts 124°
2026-05-07 04:39 35.76224 -91.58074 30396 ft 535 kts 124°
2026-05-07 04:39 35.74627 -91.53927 29592 ft 534 kts 123°
2026-05-07 04:39 35.73059 -91.49780 28821 ft 534 kts 122°
2026-05-07 04:40 35.71509 -91.45622 28080 ft 535 kts 122°
2026-05-07 04:40 35.69968 -91.41452 27414 ft 535 kts 122°
2026-05-07 04:40 35.68430 -91.37277 27045 ft 536 kts 121°
2026-05-07 04:40 35.66901 -91.33120 26675 ft 523 kts 121°
2026-05-07 04:41 35.65425 -91.29094 26312 ft 509 kts 122°
2026-05-07 04:41 35.63972 -91.25173 26183 ft 496 kts 122°
2026-05-07 04:41 35.62550 -91.21363 26118 ft 488 kts 122°
2026-05-07 04:41 35.61127 -91.17577 26112 ft 487 kts 122°
2026-05-07 04:42 35.59707 -91.13809 26096 ft 486 kts 122°
2026-05-07 04:42 35.58308 -91.10093 26083 ft 485 kts 122°
2026-05-07 04:42 35.56896 -91.06336 26069 ft 484 kts 122°
2026-05-07 04:42 35.55489 -91.02589 25840 ft 480 kts 122°
2026-05-07 04:43 35.54092 -90.98866 25104 ft 478 kts 121°
2026-05-07 04:43 35.52707 -90.95175 24466 ft 473 kts 121°
2026-05-07 04:43 35.51334 -90.91523 23833 ft 469 kts 121°
2026-05-07 04:43 35.49973 -90.87913 23135 ft 464 kts 121°
2026-05-07 04:44 35.48624 -90.84344 22463 ft 458 kts 121°
2026-05-07 04:44 35.47289 -90.80818 21803 ft 453 kts 121°
2026-05-07 04:44 35.45971 -90.77333 21151 ft 448 kts 121°
2026-05-07 04:44 35.44667 -90.73886 20521 ft 443 kts 121°
2026-05-07 04:45 35.43378 -90.70482 19906 ft 438 kts 121°
2026-05-07 04:45 35.42100 -90.67118 19306 ft 433 kts 121°
2026-05-07 04:45 35.40846 -90.63816 19050 ft 418 kts 121°
2026-05-07 04:45 35.39646 -90.60647 18928 ft 401 kts 122°
2026-05-07 04:46 35.38485 -90.57588 18673 ft 390 kts 122°
2026-05-07 04:46 35.37350 -90.54619 18214 ft 387 kts 122°
2026-05-07 04:46 35.36212 -90.51650 17719 ft 383 kts 122°
2026-05-07 04:46 35.35055 -90.48727 17205 ft 377 kts 127°
2026-05-07 04:47 35.33645 -90.46077 16741 ft 366 kts 135°
2026-05-07 04:47 35.32088 -90.43629 16267 ft 361 kts 138°
2026-05-07 04:47 35.30521 -90.41306 15723 ft 355 kts 138°
2026-05-07 04:47 35.28948 -90.39000 14959 ft 351 kts 138°
2026-05-07 04:48 35.27395 -90.36717 14225 ft 346 kts 137°
2026-05-07 04:48 35.25869 -90.34461 13452 ft 342 kts 137°
2026-05-07 04:48 35.24369 -90.32233 12668 ft 337 kts 137°
2026-05-07 04:48 35.22888 -90.30032 12010 ft 334 kts 137°
2026-05-07 04:49 35.21432 -90.27861 11897 ft 330 kts 137°
2026-05-07 04:49 35.19970 -90.25687 11835 ft 330 kts 136°
2026-05-07 04:49 35.18513 -90.23518 11779 ft 329 kts 136°
2026-05-07 04:49 35.17060 -90.21358 11299 ft 334 kts 136°
2026-05-07 04:50 35.15589 -90.19168 10734 ft 333 kts 136°
2026-05-07 04:50 35.14141 -90.17004 10391 ft 324 kts 136°
2026-05-07 04:50 35.12728 -90.14888 10244 ft 319 kts 136°
2026-05-07 04:50 35.11307 -90.12809 10107 ft 312 kts 140°
2026-05-07 04:51 35.09674 -90.11280 9675 ft 284 kts 165°
2026-05-07 04:51 35.07840 -90.10786 9122 ft 260 kts 185°
2026-05-07 04:51 35.06078 -90.10771 8640 ft 248 kts 189°
2026-05-07 04:51 35.04389 -90.10831 8229 ft 237 kts 190°
2026-05-07 04:52 35.02762 -90.10879 8037 ft 232 kts 189°
2026-05-07 04:52 35.01141 -90.10871 7976 ft 233 kts 187°
2026-05-07 04:52 34.99533 -90.10842 7913 ft 235 kts 187°
2026-05-07 04:52 34.97904 -90.10805 7851 ft 233 kts 187°
2026-05-07 04:53 34.96288 -90.10762 7768 ft 234 kts 187°
2026-05-07 04:53 34.94641 -90.10718 7478 ft 235 kts 186°
2026-05-07 04:53 34.93024 -90.10667 7231 ft 231 kts 186°
2026-05-07 04:53 34.91419 -90.10617 6933 ft 230 kts 186°
2026-05-07 04:54 34.89820 -90.10566 6632 ft 229 kts 186°
2026-05-07 04:54 34.88254 -90.10513 6282 ft 223 kts 186°
2026-05-07 04:54 34.86715 -90.10462 5745 ft 219 kts 186°
2026-05-07 04:54 34.85214 -90.10413 5203 ft 214 kts 185°
2026-05-07 04:55 34.83790 -90.10356 5039 ft 191 kts 186°
2026-05-07 04:55 34.82501 -90.10309 4620 ft 185 kts 186°
2026-05-07 04:55 34.81228 -90.10269 4213 ft 181 kts 186°
2026-05-07 04:55 34.79977 -90.10191 3845 ft 180 kts 180°
2026-05-07 04:56 34.78786 -90.09698 3472 ft 183 kts 158°
2026-05-07 04:56 34.77883 -90.08596 3089 ft 187 kts 129°
2026-05-07 04:56 34.77550 -90.07070 2999 ft 195 kts 96°
2026-05-07 04:56 34.77927 -90.05453 3058 ft 213 kts 60°
2026-05-07 04:57 34.78832 -90.03964 3111 ft 223 kts 51°
2026-05-07 04:57 34.79835 -90.02515 3064 ft 224 kts 49°
2026-05-07 04:57 34.80862 -90.01069 3062 ft 227 kts 49°
2026-05-07 04:57 34.81898 -89.99625 3066 ft 226 kts 49°
2026-05-07 04:58 34.82982 -89.98247 3048 ft 226 kts 37°
2026-05-07 04:58 34.84344 -89.97458 2966 ft 216 kts
2026-05-07 04:58 34.85834 -89.97315 3026 ft 216 kts 355°
2026-05-07 04:58 34.87340 -89.97243 2998 ft 216 kts 354°
2026-05-07 04:59 34.88821 -89.97246 2969 ft 205 kts 350°
2026-05-07 04:59 34.90202 -89.97280 2943 ft 197 kts 349°
2026-05-07 04:59 34.91573 -89.97321 2655 ft 196 kts 349°
2026-05-07 04:59 34.92939 -89.97358 2411 ft 196 kts 350°
2026-05-07 05:00 34.94301 -89.97388 2147 ft 194 kts 350°
2026-05-07 05:00 34.95654 -89.97418 1902 ft 194 kts 351°
2026-05-07 05:00 34.97004 -89.97446 1643 ft 194 kts 352°
2026-05-07 05:00 34.98328 -89.97481 1339 ft 188 kts 355°
2026-05-07 05:01 34.99584 -89.97524 1023 ft 173 kts 356°
2026-05-07 05:01 35.00735 -89.97554 690 ft 160 kts
2026-05-07 05:01 35.01882 -89.97540 474 ft 158 kts 359°
2026-05-07 05:01 35.02886 -89.97562 333 ft 128 kts 358°
2026-05-07 05:02 35.03658 -89.97575 328 ft 93 kts 359°
2026-05-07 05:02 35.04183 -89.97590 331 ft 58 kts 359°
2026-05-07 05:02 35.04479 -89.97580 330 ft 35 kts 12°
2026-05-07 05:02 35.04657 -89.97474 330 ft 25 kts
2026-05-07 05:03 35.04817 -89.97470 331 ft 21 kts 360°
2026-05-07 05:03 35.04954 -89.97468 332 ft 18 kts
2026-05-07 05:03 35.05066 -89.97471 333 ft 16 kts 357°
2026-05-07 05:03 35.05200 -89.97478 332 ft 22 kts 359°
2026-05-07 05:04 35.05363 -89.97482 331 ft 24 kts 358°
2026-05-07 05:04 35.05526 -89.97485 334 ft 22 kts 359°
2026-05-07 05:04 35.05666 -89.97486 335 ft 18 kts 359°
2026-05-07 05:04 35.05789 -89.97483 336 ft 18 kts
2026-05-07 05:05 35.05908 -89.97510 336 ft 16 kts 345°
2026-05-07 05:05 35.06011 -89.97538 333 ft 14 kts 355°
2026-05-07 05:05 35.06110 -89.97541 336 ft 16 kts 359°
2026-05-07 05:05 35.06190 -89.97494 334 ft 11 kts 63°
2026-05-07 05:06 35.06198 -89.97428 334 ft 13 kts 91°
2026-05-07 05:06 35.06188 -89.97293 335 ft 20 kts 105°
2026-05-07 05:06 35.06175 -89.97108 335 ft 18 kts 85°
2026-05-07 05:06 35.06162 -89.97074 333 ft 4 kts 149°
2026-05-07 05:07 35.06152 -89.97075 334 ft 0 kts 184°